[[{"header":{"parameterUnit":"m.s-1","parameterCategory":1,"la1":30.2991,"la2":30.254,"lo1":-89.0895,"lo2":-89.0444,"dy":0.0017,"dx":0.0017,"nx":28,"ny":28,"refTime":"2025-03-08T09:00:00:Z","depth":0,"parameterNumber":2,"parameterNumberName":"U-component_of_WINDS"},"data":[0,0,0,0,0,0,0,0,0,0,0,0,0,0,0,0,0,0,0,0,0,0,0,0,0,0,0,0,0,0,0,0,0,0,0,0,0,0,0,0,0,0,0,0,0,0,0,0,0,0,0,0,0,0,0,0,0,0,1.7282,1.7283,0,1.7364,1.7365,1.7366,1.7328,1.7326,1.7324,1.7322,1.7417,1.7421,1.7425,0,0,0,0,0,0,0,0,0,0,0,0,0,1.7105,1.7108,1.7282,1.7283,1.7284,1.7364,1.7365,1.7366,1.7329,1.7326,1.7324,1.7321,1.7415,1.7421,1.7426,0,0,0,0,0,0,0,0,0,0,0,0,0,1.7184,1.7109,1.7282,1.7275,1.7275,1.7364,1.7365,1.7367,1.7329,1.7326,1.7323,1.732,1.7414,1.742,1.7427,1.753,0,0,1.7447,1.745,0,0,0,0,0,0,0,0,1.7179,1.7191,1.7275,1.7275,1.7276,1.7332,1.7337,1.7422,1.733,1.7309,1.7322,1.7319,1.7392,1.74,1.7423,1.7535,1.7539,1.7448,1.7452,1.7455,1.7456,0,0,0,0,0,0,0,1.7174,1.7187,1.7315,1.7276,1.7277,1.7271,1.7279,1.7353,1.7368,1.7311,1.7308,1.7318,1.7392,1.7416,1.7425,1.754,1.7447,1.7453,1.7458,1.746,1.7745,1.7748,0,0,0,0,0,0,1.7167,1.7182,1.7312,1.7317,1.7219,1.7277,1.7286,1.7318,1.7366,1.7371,1.732,1.7316,1.7407,1.7417,1.7428,1.7554,1.7454,1.7461,1.7465,1.7741,1.7745,1.7749,0,0,0,0,0,0,1.7163,1.7179,1.7309,1.7249,1.7265,1.7283,1.732,1.7321,1.7345,1.7373,1.7377,1.7342,1.7404,1.7419,1.7505,1.7557,1.7464,1.747,1.7737,1.7742,1.7747,1.7807,0,0,0,0,0,0,1.7159,1.7178,1.7215,1.725,1.7268,1.7382,1.7323,1.7325,1.7356,1.7351,1.7395,1.7399,1.7403,1.7495,1.7512,1.7565,1.7475,1.7732,1.7739,1.7746,1.7801,1.7814,1.7825,0,0,0,0,0,1.7152,1.723,1.7217,1.7233,1.7314,1.7384,1.7395,1.7395,1.736,1.7399,1.7418,1.7398,1.7548,1.7504,1.7523,1.7578,1.7729,1.7737,1.7745,1.7795,1.7811,1.7825,0,0,0,0,0,0,1.7204,1.7235,1.722,1.7311,1.7345,1.7378,1.7427,1.7412,1.7459,1.7453,1.7453,1.7464,1.7554,1.7575,1.7525,1.7683,1.7634,1.7646,1.7666,1.7681,1.7693,1.7687,1.7481,0,0,0,0,0,1.7225,1.7276,1.7301,1.738,1.7397,1.7409,1.744,1.7436,1.7473,1.7488,1.7513,1.7552,1.7609,1.7646,1.7699,1.7803,1.7814,1.7851,1.7863,1.7873,1.7884,1.7943,1.796,1.7775,1.7775,1.7775,0,0,1.7271,1.7294,1.7327,1.739,1.7416,1.7473,1.7422,1.7483,1.7526,1.7499,1.7581,1.7601,1.7646,1.7742,1.7785,1.7762,1.7937,1.7883,1.789,1.7896,1.7953,1.7971,1.7986,1.7781,1.778,1.7779,0,0,1.7384,1.7405,1.7473,1.7499,1.7538,1.7546,1.7562,1.7598,1.7609,1.7691,1.7672,1.7725,1.7821,1.7854,1.7884,1.801,1.7995,1.8027,1.8092,1.815,1.8165,1.8178,1.8225,1.8242,1.8038,1.8038,1.8038,0,1.7437,1.7517,1.7511,1.7573,1.7604,1.7578,1.7649,1.7677,1.7733,1.7756,1.7728,1.7849,1.7877,1.7981,1.8012,1.8036,1.8058,1.8023,1.8162,1.8175,1.8187,1.8233,1.825,1.8042,1.8041,1.8041,1.8041,0,1.7582,1.7638,1.7689,1.774,1.7776,1.7843,1.785,1.7888,1.7882,1.7894,1.798,1.8012,1.8073,1.8097,1.8093,1.8202,1.8187,1.816,1.8112,1.8209,1.8252,1.8269,1.8047,1.8046,1.8045,1.8044,0,0,1.773,1.7776,1.7795,1.7819,1.786,1.7905,1.7973,1.8028,1.8062,1.8102,1.8161,1.8243,1.8219,1.8253,1.8252,1.8303,1.8404,1.8271,1.8272,1.8296,1.853,1.855,1.857,1.8393,1.8396,1.8399,1.8527,0,1.7847,1.796,1.7957,1.8065,1.8119,1.8096,1.8155,1.8189,1.8203,1.8253,1.8269,1.8328,1.8291,1.8312,1.836,1.8381,1.8451,1.8371,1.8452,1.8455,1.8443,1.8592,1.8614,1.8733,1.8543,1.8546,1.8548,0,1.7998,1.804,1.8152,1.8186,1.8209,1.8262,1.8314,1.8361,1.8401,1.8407,1.8444,1.8436,1.8509,1.8457,1.8559,1.8505,1.8538,1.8553,1.8558,1.8567,1.8508,1.8608,1.8771,1.8789,1.8574,1.8572,1.857,0,1.8097,1.8182,1.826,1.8281,1.8323,1.8361,1.8381,1.8417,1.8451,1.8498,1.8521,1.8576,1.8608,1.8653,1.8661,1.8622,1.8765,1.8713,1.8776,1.8776,1.8808,1.8807,1.8981,1.8826,1.8826,1.8825,1.8825,0,1.8229,1.83,1.8305,1.8354,1.8433,1.843,1.851,1.8527,1.856,1.8614,1.8599,1.8651,1.8658,1.8713,1.8721,1.8806,1.882,1.883,1.8832,1.8833,1.8832,1.8856,1.8849,1.883,1.8829,1.8828,1.8827,0,1.8354,1.836,1.8445,1.8477,1.8487,1.8544,1.8573,1.8622,1.8633,1.8703,1.8719,1.8739,1.8803,1.8815,1.8892,1.8897,1.8999,1.8992,1.8985,1.8985,1.9048,1.9043,1.9246,1.9274,1.9099,1.91,1.9102,0,1.8439,1.8492,1.8529,1.8562,1.8583,1.8638,1.8672,1.8673,1.871,1.876,1.8803,1.8865,1.8915,1.9019,1.9043,1.9103,1.9098,1.9165,1.9107,1.9107,1.9102,1.9099,1.9106,1.9177,1.9178,1.918,1.9181,0,1.8589,1.859,1.8637,1.8687,1.8728,1.8768,1.8806,1.8836,1.8842,1.8885,1.8949,1.8987,1.9064,1.9128,1.9187,1.9212,1.92,1.9199,1.9217,1.922,1.9214,1.922,1.9018,1.9195,1.9193,1.9192,1.9192,1.9191,1.8698,1.8745,1.8778,1.8833,1.8861,1.8897,1.8944,1.8961,1.9013,1.9074,1.9072,1.9143,1.9184,1.9262,1.9291,1.9349,1.9328,1.9354,1.9361,1.9368,1.9375,1.9203,1.936,1.9359,1.9359,1.9359,1.9358,0,1.8849,1.8869,1.892,1.8972,1.9016,1.8996,1.9038,1.9077,1.9139,1.9176,1.9225,1.93,1.9361,1.9389,1.9451,1.9492,1.9488,1.9509,1.9507,1.9514,1.9388,1.9367,1.9511,1.9511,1.9511,1.9511,1.9511,1.9511,1.8933,1.9012,1.9017,1.9111,1.9131,1.9198,1.9224,1.9259,1.9289,1.9372,1.9421,1.9438,1.9473,1.9537,1.9594,1.9601,1.9626,1.965,1.9654,1.9537,1.9522,1.9507,1.9488,1.9654,1.9655,1.9775,1.9776,1.9777]},{"header":{"parameterUnit":"m.s-1","parameterCategory":1,"la1":30.2991,"la2":30.254,"lo1":-89.0895,"lo2":-89.0444,"dy":0.0017,"dx":0.0017,"nx":28,"ny":28,"refTime":"2025-03-08T09:00:00:Z","depth":0,"parameterNumber":3,"parameterNumberName":"V-component_of_WINDS"},"data":[0,0,0,0,0,0,0,0,0,0,0,0,0,0,0,0,0,0,0,0,0,0,0,0,0,0,0,0,0,0,0,0,0,0,0,0,0,0,0,0,0,0,0,0,0,0,0,0,0,0,0,0,0,0,0,0,0,0,2.4331,2.4333,0,2.4471,2.4472,2.4474,2.4485,2.4484,2.4482,2.4481,2.463,2.4635,2.464,0,0,0,0,0,0,0,0,0,0,0,0,0,2.4079,2.4083,2.4331,2.4333,2.4334,2.447,2.4472,2.4474,2.4485,2.4484,2.4482,2.448,2.4628,2.4634,2.4641,0,0,0,0,0,0,0,0,0,0,0,0,0,2.42,2.4085,2.4331,2.4356,2.436,2.447,2.4472,2.4475,2.4486,2.4484,2.4481,2.4479,2.4626,2.4634,2.4642,2.4738,0,0,2.4667,2.467,0,0,0,0,0,0,0,0,2.4194,2.421,2.4351,2.4355,2.4359,2.4458,2.4438,2.4563,2.4486,2.4438,2.4481,2.4478,2.4575,2.4587,2.4619,2.4745,2.4751,2.4667,2.4672,2.4676,2.4678,0,0,0,0,0,0,0,2.4185,2.4204,2.4386,2.4353,2.4358,2.4362,2.4377,2.4462,2.4518,2.4442,2.4443,2.4459,2.4577,2.4611,2.4622,2.4753,2.4667,2.4674,2.4679,2.4682,2.4966,2.4969,0,0,0,0,0,0,2.4171,2.4197,2.4382,2.4391,2.4269,2.4369,2.4385,2.4429,2.4517,2.4528,2.4461,2.4459,2.4598,2.4613,2.4627,2.4746,2.4676,2.4683,2.4688,2.4964,2.4967,2.497,0,0,0,0,0,0,2.4166,2.4187,2.4376,2.4294,2.4318,2.4376,2.4424,2.4433,2.4467,2.4531,2.4542,2.4485,2.4597,2.4616,2.471,2.4752,2.4687,2.4694,2.496,2.4965,2.4968,2.4984,0,0,0,0,0,0,2.4158,2.4185,2.4221,2.4295,2.4323,2.4455,2.4427,2.4437,2.448,2.4479,2.4557,2.4567,2.4596,2.4698,2.4718,2.4762,2.47,2.4957,2.4962,2.4967,2.4981,2.4989,2.4995,0,0,0,0,0,2.4149,2.4221,2.4223,2.4245,2.4368,2.4457,2.4474,2.4504,2.4483,2.4521,2.4562,2.4565,2.4743,2.4707,2.473,2.4777,2.4955,2.4961,2.4967,2.4977,2.4987,2.4995,0,0,0,0,0,0,2.4154,2.4232,2.4234,2.4332,2.4388,2.4459,2.4507,2.4513,2.4578,2.4574,2.461,2.4628,2.4721,2.4758,2.4717,2.4875,2.4847,2.4858,2.4847,2.4857,2.4864,2.4854,2.4707,0,0,0,0,0,2.4166,2.423,2.4295,2.4375,2.4402,2.445,2.449,2.4508,2.4568,2.4592,2.4641,2.4701,2.477,2.4815,2.4883,2.4985,2.5003,2.5029,2.5036,2.5042,2.5052,2.511,2.5122,2.499,2.499,2.4989,0,0,2.4192,2.4242,2.4281,2.4377,2.4422,2.4489,2.447,2.4542,2.4592,2.4604,2.4695,2.4733,2.4802,2.4901,2.4947,2.4935,2.5092,2.505,2.5054,2.5061,2.5117,2.513,2.5141,2.4994,2.4993,2.4992,0,0,2.4274,2.4318,2.4389,2.4435,2.4503,2.4534,2.4551,2.4621,2.4646,2.4738,2.4748,2.481,2.4929,2.4978,2.5018,2.5118,2.5124,2.5139,2.5179,2.5235,2.5245,2.5255,2.5292,2.5304,2.5148,2.5148,2.5148,0,2.4299,2.4398,2.4426,2.4498,2.454,2.4551,2.4625,2.4668,2.4756,2.4786,2.477,2.492,2.4967,2.5078,2.5102,2.5134,2.5156,2.5131,2.5241,2.5251,2.526,2.5296,2.5309,2.5149,2.5149,2.5149,2.5149,0,2.4426,2.4495,2.4545,2.4627,2.4675,2.4747,2.4788,2.4833,2.4847,2.488,2.4974,2.5031,2.511,2.5138,2.5153,2.5251,2.5241,2.5233,2.5206,2.5274,2.5308,2.5322,2.5152,2.5151,2.5151,2.515,0,0,2.4516,2.4611,2.4629,2.4667,2.4742,2.4798,2.4871,2.4946,2.4985,2.5045,2.5109,2.5209,2.5201,2.5247,2.5268,2.5316,2.5393,2.5303,2.5305,2.5319,2.5507,2.5514,2.5529,2.5397,2.5399,2.5402,2.5502,0,2.4607,2.4736,2.4763,2.4875,2.494,2.4951,2.5015,2.5069,2.5102,2.5163,2.52,2.5271,2.5255,2.5283,2.5332,2.5374,2.5432,2.5367,2.5459,2.5462,2.5442,2.5547,2.5554,2.5646,2.5515,2.5517,2.5519,0,2.4732,2.4792,2.491,2.4977,2.5006,2.5062,2.5134,2.5192,2.5254,2.5275,2.5325,2.534,2.5419,2.5387,2.5496,2.5451,2.549,2.5517,2.5521,2.5532,2.5495,2.5562,2.5676,2.569,2.554,2.5538,2.5537,0,2.4787,2.4898,2.4983,2.5015,2.5095,2.5135,2.5171,2.523,2.5274,2.5337,2.5367,2.5439,2.5479,2.5535,2.557,2.5543,2.5678,2.5648,2.5699,2.5698,2.5728,2.5726,2.5851,2.575,2.575,2.575,2.575,0,2.4887,2.4959,2.5009,2.5062,2.5143,2.5174,2.5255,2.529,2.5343,2.5404,2.5419,2.5476,2.5518,2.5582,2.561,2.5697,2.5715,2.5735,2.5742,2.5735,2.5732,2.5762,2.5757,2.5754,2.5753,2.5752,2.5751,0,2.4963,2.4999,2.5093,2.516,2.5179,2.5237,2.5295,2.5348,2.538,2.5457,2.5477,2.5529,2.5605,2.5644,2.574,2.5758,2.5857,2.586,2.5835,2.5839,2.5888,2.5883,2.6038,2.606,2.5943,2.5944,2.5945,0,2.5025,2.5081,2.5154,2.5195,2.523,2.5296,2.5341,2.5373,2.5419,2.5494,2.5538,2.5614,2.5677,2.5798,2.5845,2.5918,2.5924,2.5973,2.5935,2.5926,2.5926,2.5923,2.593,2.598,2.5981,2.5982,2.5983,0,2.5132,2.5147,2.5209,2.5278,2.533,2.5387,2.5442,2.5476,2.5518,2.5569,2.5645,2.5694,2.579,2.5866,2.5943,2.5982,2.5991,2.5994,2.601,2.6004,2.5988,2.5999,2.5855,2.5991,2.599,2.5989,2.5989,2.5988,2.5205,2.5254,2.5313,2.5383,2.5427,2.5479,2.5532,2.557,2.5633,2.5713,2.5729,2.581,2.5872,2.5976,2.6017,2.6082,2.6073,2.6095,2.6101,2.6107,2.611,2.5976,2.6096,2.6096,2.6096,2.6096,2.6096,0,2.5313,2.5351,2.5414,2.5491,2.5546,2.5546,2.5608,2.5654,2.5725,2.5781,2.5842,2.5931,2.6004,2.6057,2.6132,2.6175,2.6181,2.6194,2.6192,2.6201,2.6113,2.6093,2.6188,2.6188,2.6188,2.6188,2.6188,2.6188,2.5376,2.5461,2.5483,2.5591,2.5629,2.5707,2.5743,2.5791,2.5836,2.5934,2.5994,2.6027,2.6083,2.6162,2.6231,2.6244,2.6272,2.6286,2.63,2.6217,2.6207,2.6198,2.6179,2.6291,2.6291,2.6383,2.6383,2.6384]}]]